Location: Krakow
(50.0830°N, 19.9170°E)
Time: 13:58:16
(UTC+02:00)

Tiros 1 - Pass Details

Date: 05 February 2023
Orbit: 627 x 662 km, 48.4° (Epoch: 01 April)

Event Time Altitude Azimuth Distance (km) Brightness Sun altitude
Exits shadow 05:55:40 12° 248° (WSW) 1,888 9.0 -12.0°
Maximum altitude 05:57:37 15° 221° (SW) 1,712 9.0 -11.7°
Drops below altitude 10° 06:00:18 10° 186° (S) 2,040 9.8 -11.3°
Sets 06:03:30 0° 163° (SSE) 2,954 11.0 -10.8°
